This is the latest recevied weather packets stored in our database for station/object VK2KGV-15. If no packets are shown the sender has not sent any weather packets the latest 10 day(s).
| Time | Temp. | Humidity | Pressure | Rain* | Wind** | Luminosity | Snow |
|---|---|---|---|---|---|---|---|
| 1787803789 | 20.56° C | 45% | 1022.9 hPa | 0 mm | - | - | - |
| 1787803185 | 20.56° C | 44% | 1022.9 hPa | 0 mm | - | - | - |
| 1787801979 | 22.22° C | 39% | 1022.6 hPa | 0 mm | - | - | - |
| 1787799567 | 22.22° C | 35% | 1022.7 hPa | 0 mm | - | - | - |
| 1787797154 | 21.67° C | 45% | 1023.4 hPa | 0 mm | - | - | - |
| 1787795948 | 21.11° C | 45% | 1023.6 hPa | 0 mm | - | - | - |
| 1787795345 | 21.11° C | 42% | 1023.6 hPa | 0 mm | - | - | - |
| 1787793536 | 20.56° C | 48% | 1024 hPa | 0 mm | - | - | - |
| 1787792933 | 20.56° C | 46% | 1024 hPa | 0 mm | - | - | - |
| 1787792329 | 20° C | 51% | 1024.4 hPa | 0 mm | - | - | - |
| 1787791726 | 19.44° C | 51% | 1024.5 hPa | 0 mm | - | - | - |
| 1787791123 | 19.44° C | 57% | 1024.7 hPa | 0 mm | - | - | - |
| 1787789917 | 18.33° C | 62% | 1024.9 hPa | 0 mm | - | - | - |
| 1787787504 | 17.22° C | 67% | 1025 hPa | 0 mm | - | - | - |
| 1787782077 | 12.22° C | 87% | 1025.3 hPa | 0 mm | - | - | - |
| 1787781473 | 11.11° C | 90% | 1025.4 hPa | 0 mm | - | - | - |
| 1787780267 | 8.89° C | 94% | 1025.4 hPa | 0 mm | - | - | - |
| 1787777855 | 5° C | 95% | 1025.2 hPa | 0 mm | - | - | - |
| 1787774236 | 4.44° C | 93% | 1024.6 hPa | 0 mm | - | - | - |
| 1787773030 | 4.44° C | 93% | 1024.3 hPa | 0 mm | - | - | - |
| 1787771824 | 4.44° C | 92% | 1023.9 hPa | 0 mm | - | - | - |
| 1787770617 | 4.44° C | 93% | 1023.8 hPa | 0 mm | - | - | - |
| 1787769411 | 4.44° C | 91% | 1023.8 hPa | 0 mm | - | - | - |
| 1787768808 | 5° C | 91% | 1023.7 hPa | 0 mm | - | - | - |
| 1787766999 | 5.56° C | 91% | 1023.6 hPa | 0 mm | - | - | - |
* Rain since midnight (hover to see other rain measurements)
** Current wind speed in m/s (hover to see current wind gust speed)